Location: *
(49.2333°S, 177.3500°W)
Time: 06:05:47
(UTC+00:00)

Daily predictions for brighter satellites

Satellite Brightness Start Highest point End
(mag) Time Altitude Azimuth Time Altitude Azimuth Time Altitude Azimuth
Cosmos 1733 4.2 12:04:48 33° ENE 12:05:24 35° E 12:09:00 10° SSE
Cosmos 2322 4.2 12:00:18 10° SW 12:05:44 45° WNW 12:07:11 37° NW
BREEZE-M DEB (TANK) 2.9 12:03:18 10° W 12:06:13 50° NNW 12:14:35 10° NE
H-2A R/B 2.3 12:05:29 58° NNE 12:06:16 88° ESE 12:10:32 10° SSW
KORONAS-FOTON 4.2 12:03:25 10° S 12:07:15 55° ESE 12:08:01 46° ENE
Cosmos 2333 Rocket 2.4 12:03:22 10° SSW 12:09:06 70° ESE 12:12:36 24° NE
COSMOS 2428 2.7 12:03:55 10° SSW 12:09:41 70° WNW 12:11:50 39° N
Lacrosse 5 rocket 2.4 12:07:53 10° WSW 12:10:08 28° W 12:10:08 28° W
PSLV R/B 4.1 12:09:10 10° S 12:11:11 38° SSW 12:11:11 38° SSW
Cosmos 2181 Rocket 4.1 12:05:53 10° SSW 12:12:10 64° W 12:14:41 36° NNW
Cosmos 2227 Rocket 3.9 12:10:33 17° NE 12:12:44 21° E 12:16:54 10° SE
GEOS 3 Rocket 4.1 12:13:44 38° NW 12:14:24 39° WNW 12:19:13 10° SW
Cosmos 1242 Rocket 2.8 12:14:48 53° ENE 12:15:02 55° E 12:18:37 10° SSE
ATLAS 5 CENTAUR R/B 4.1 12:11:54 10° SW 12:16:52 29° SSE 12:21:21 10° E
Cosmos 1452 Rocket 3.6 12:11:43 10° SSW 12:17:00 62° WNW 12:18:35 42° NNW
Resurs 1-4 Rocket 3.1 12:15:38 17° NE 12:19:24 43° ESE 12:24:27 10° S
SL-24 DEB 4.3 12:18:16 45° N 12:19:47 87° E 12:24:41 10° S
Cosmos 2184 Rocket 4.2 12:17:45 33° NNE 12:20:43 67° E 12:27:07 10° SSE
CZ-4C R/B 3.0 12:15:55 18° WNW 12:21:45 68° SW 12:28:29 10° SE
Cosmos 2074 Rocket 4.1 12:19:11 34° N 12:22:04 71° E 12:28:20 10° SSE
Cosmos 1400 Rocket 4.5 12:18:55 10° S 12:22:42 31° ESE 12:25:10 18° ENE
Cosmos 1766 4.2 12:22:25 34° WNW 12:23:10 38° WSW 12:26:55 10° S
Cosmos 1812 Rocket 3.6 12:22:46 50° NNW 12:23:57 83° WSW 12:28:33 10° S
Cosmos 2219 Rocket 2.1 12:20:36 10° SSW 12:26:20 80° WNW 12:28:59 33° NNE
Cosmos 2322 Rocket 4.4 12:26:49 10° W 12:27:43 10° W 12:28:38 10° WNW
CZ-2C R/B 3.9 12:23:08 10° S 12:28:49 50° WSW 12:31:42 27° NW
Cosmos 1544 4.3 12:28:35 29° W 12:29:09 30° WSW 12:32:29 10° S
Cosmos 1420 Rocket 4.1 12:24:21 10° SSW 12:29:37 64° WNW 12:31:25 40° N
Cosmos 1626 4.4 12:26:47 10° SSE 12:29:48 21° ESE 12:32:19 12° ENE
ERBS 3.9 12:28:26 16° W 12:30:50 36° SSW 12:34:11 10° SE
NPP 3.6 12:32:02 33° NNE 12:34:34 89° WNW 12:40:06 10° SSW
Cosmos 158 Rocket 3.9 12:33:05 41° N 12:34:42 68° ENE 12:39:37 10° SSE
ASTEX 1 3.3 12:33:23 40° N 12:35:13 88° W 12:40:15 10° S
Cosmos 1980 3.8 12:30:04 10° SSW 12:35:51 76° ESE 12:40:00 19° NE
Helios 1A Rocket 3.2 12:36:06 35° NE 12:37:44 67° ESE 12:41:59 10° S
SL-16 R/B 3.6 12:32:37 10° SSW 12:37:57 38° SE 12:43:14 10° ENE
Cosmos 967 Rocket 4.4 12:33:36 10° SW 12:39:52 69° WNW 12:43:33 26° NNE
SL-14 R/B 3.5 12:38:11 10° S 12:42:11 64° E 12:43:27 39° NE
Cosmos 2297 Rocket 3.4 12:41:30 21° NNE 12:44:09 31° ENE 12:49:06 10° SE
Okean 3 Rocket 3.5 12:40:30 10° SSW 12:45:06 78° W 12:46:31 43° N
ATLAS CENTAUR R/B 3.7 12:44:06 15° NE 12:45:42 17° ENE 12:48:47 10° ESE
MOS 1 Rocket 3.2 12:44:57 34° NNE 12:46:57 82° ESE 12:51:48 10° SSW
Cosmos 1470 2.7 12:47:57 50° NNW 12:48:58 87° WSW 12:53:04 10° S
Cosmos 1269 Rocket 4.2 12:48:15 34° N 12:50:28 64° ENE 12:55:46 10° SSE
Cosmos 1766 Rocket 3.7 12:47:43 10° S 12:52:10 69° ESE 12:54:13 31° NNE
TELKOM 3 4.3 12:53:27 38° ESE 12:53:27 38° ESE 12:55:22 10° E
CZ-2D R/B 2.2 12:50:14 24° NNE 12:53:37 77° ESE 12:59:00 10° SSW
ADEOS Rocket 3.9 12:53:56 24° WNW 12:55:37 28° W 13:00:23 10° SW
ALOS 2 3.3 12:53:29 10° S 12:57:46 45° WSW 12:59:23 31° WNW
Cosmos 1674 3.9 12:56:20 10° SSW 12:59:36 27° W 12:59:51 27° W
Cosmos 1758 4.2 12:59:14 31° WNW 13:00:20 38° WSW 13:04:10 10° S
NOSS 0 Rocket 4.0 12:54:13 10° SW 13:00:26 62° WNW 13:04:03 26° N
CBERS-1 4.1 12:58:25 34° NNW 13:00:32 61° WNW 13:05:42 10° SSW
IRS-1C 4.1 12:59:00 30° N 13:01:45 75° WNW 13:07:12 10° SSW
Cosmos 1953 3.1 13:04:35 32° WNW 13:05:47 41° WSW 13:09:46 10° S
Cosmos 1408 Rocket 3.5 13:02:12 10° S 13:06:39 85° E 13:08:45 31° NNE
Cosmos 1328 3.8 13:02:33 10° S 13:06:43 85° E 13:08:23 35° NNE
Meteor 1-11 4.5 13:04:04 10° S 13:09:57 73° ESE 13:14:35 17° NNE
Landsat 5 4.5 13:06:19 10° SSE 13:10:14 37° E 13:12:14 23° NNE
Cosmos 1076 Rocket 4.0 13:08:19 10° SSW 13:12:35 46° W 13:13:54 35° NW
ARIANE 5 R/B 2.6 13:09:28 21° NNE 13:13:03 86° ESE 13:18:24 10° SSW
Nadezhda 3 Rocket 4.0 13:09:35 10° SSW 13:16:01 73° W 13:20:00 24° N
Cosmos 1703 4.0 13:15:55 10° S 13:19:56 54° ESE 13:22:46 18° NNE
Cosmos-2242 3.0 13:19:19 33° N 13:21:18 87° E 13:25:44 10° S
Cosmos 2082 4.1 13:19:43 25° N 13:22:57 57° ENE 13:28:35 10° SE
Cosmos 2219 3.7 13:21:16 23° WNW 13:24:42 53° SW 13:30:22 10° SSE
SeaSat 1 3.7 13:25:09 22° WNW 13:25:46 22° WNW 13:29:38 10° SW
AQUA 4.4 13:24:00 30° NW 13:25:46 41° W 13:30:22 10° SSW
CZ-2D R/B 4.2 13:22:56 13° NE 13:26:25 51° ESE 13:30:25 10° S
Cosmos 2058 3.4 13:23:36 10° S 13:27:54 60° ESE 13:31:15 16° NNE
IRS-1D 3.6 13:25:13 25° N 13:28:11 63° WNW 13:33:32 10° SSW
H-2A R/B 4.5 13:27:47 10° SSW 13:29:35 12° SW 13:31:21 10° W
USA 215 3.3 13:23:35 10° NE 13:30:02 58° NW 13:36:35 10° WSW
Cosmos 2341 Rocket 4.0 13:26:56 23° N 13:31:07 86° E 13:37:28 10° S
CZ-4B R/B 1.8 13:27:37 10° SSE 13:31:19 65° ENE 13:32:58 30° N
ADEOS II 3.4 13:29:40 10° NE 13:34:34 40° ESE 13:39:31 10° S
Cosmos 2154 Rocket 4.1 13:32:04 24° NNW 13:35:54 65° WSW 13:42:14 10° S
Cosmos 1110 Rocket 4.2 13:33:40 10° SSW 13:38:51 54° WNW 13:42:18 21° N
Cosmos 1607 4.4 13:35:16 21° N 13:39:13 52° ENE 13:45:11 10° SE
SL-19 R/B 3.9 13:37:04 10° SSE 13:39:58 61° ENE 13:41:06 33° N
Cosmos 494 Rocket 4.1 13:40:02 24° NNW 13:43:19 77° ENE 13:48:37 10° SSE
Meteor 2-15 Rocket 4.4 13:38:41 10° SSW 13:44:52 81° W 13:50:13 14° N
Meteor 2-15 4.5 13:40:38 10° SSW 13:46:43 67° W 13:51:28 17° N
Cosmos 2237 Rocket 2.8 13:41:42 10° SW 13:46:53 37° WNW 13:49:56 21° NNW
Cosmos 1315 Rocket 2.8 13:43:58 10° SSW 13:48:00 69° W 13:50:27 22° N
CZ-4C R/B 3.6 13:48:27 10° S 13:51:32 38° WSW 13:52:46 27° WNW
Geosat 4.5 13:46:59 10° SSE 13:51:57 53° SW 13:55:26 19° WNW
Cosmos 2333 Rocket 3.5 13:48:32 10° SW 13:52:48 22° W 13:54:33 19° NW
Cosmos 1727 Rocket 4.4 13:47:51 10° S 13:54:12 68° ESE 14:00:31 10° NNE
ADEOS 3.7 13:50:31 18° N 13:54:19 57° WNW 13:59:34 10° SSW
Cosmos 2221 3.7 13:51:29 10° NNE 13:55:29 39° E 13:59:34 10° SSE
Cosmos 2227 Rocket 2.3 13:52:22 21° NW 13:56:12 72° WSW 14:01:56 10° SSE
Cosmos 1400 Rocket 4.0 13:55:30 10° SSW 13:59:09 28° W 14:00:48 22° NW
Resurs 1-4 Rocket 3.0 13:56:42 21° NW 13:59:22 32° W 14:04:09 10° SSW
Cosmos 1689 Rocket 2.5 13:56:38 10° S 13:59:52 59° WSW 14:01:25 27° NW
ATLAS 5 CENTAUR R/B 1.9 13:56:44 10° SW 14:02:15 84° NW 14:07:06 10° NE
Genesis I 4.2 14:01:19 10° SSW 14:05:06 49° SE 14:08:50 10° ENE
Cosmos 1626 3.0 14:01:45 10° SSW 14:05:14 33° W 14:06:56 22° NW
Cosmos 2251 Rocket 3.5 14:02:25 19° NNW 14:06:19 84° ENE 14:11:40 10° SSE
Cosmos 2219 Rocket 3.9 14:06:36 10° WSW 14:09:20 14° W 14:10:40 13° WNW
CZ-4C R/B 4.3 14:05:16 10° W 14:11:28 29° SSW 14:16:58 10° SE
Cosmos 2218 Rocket 4.0 14:06:08 14° N 14:11:46 87° W 14:18:09 10° S
SL-16 R/B 3.9 14:10:31 10° SSE 14:16:11 35° E 14:21:47 10° NNE
Cosmos 1743 Rocket 4.4 14:17:14 10° SSW 14:21:13 34° W 14:24:07 16° NNW
SL-16 R/B 2.5 14:16:46 10° SW 14:22:11 45° WNW 14:27:34 10° N
ATLAS CENTAUR R/B 1.8 14:20:21 17° NW 14:24:07 86° SW 14:29:04 10° SE
UNKNOWN OBJECT B 3.5 14:21:12 16° NNW 14:24:07 38° W 14:27:58 10° SSW
SL-8 Rocket 4.2 14:21:26 14° NNW 14:26:42 59° WSW 14:32:53 10° S
Cosmos 1603 3.9 14:21:32 10° SSW 14:27:16 80° ESE 14:32:53 10° NNE
Cosmos 2297 Rocket 2.7 14:23:18 15° NW 14:27:57 52° SW 14:33:34 10° SSE
Cosmos 2151 3.8 14:24:01 10° SSW 14:28:01 34° W 14:31:13 14° NNW
Cosmos 1500 Rocket 4.3 14:26:16 10° SSW 14:30:26 36° W 14:33:56 13° NNW
Cosmos 2366 rocket 4.1 14:25:57 11° NNW 14:32:02 71° WSW 14:38:28 10° S
CZ-2D R/B 3.7 14:31:34 13° WNW 14:34:16 18° W 14:37:52 10° SW
BREEZE-M DEB (TANK) 3.2 14:36:38 13° N 14:37:57 20° NNE 14:40:36 10° E
BREEZE-M DEB (TANK) 2.4 14:36:48 10° W 14:39:01 45° NNW 14:42:49 10° NE
Lacrosse 4 Rocket 3.2 14:36:07 10° SSW 14:40:22 40° SE 14:44:38 10° ENE
Okean O Rocket 2.3 14:37:40 10° NNE 14:42:03 60° ESE 14:46:27 10° S
CZ-4B R/B 3.4 14:38:01 10° NNE 14:42:36 78° ESE 14:47:08 10° S
MOS 1-B 4.4 14:37:46 10° N 14:43:36 68° WNW 14:49:30 10° SSW
Cosmos 1992 Rocket 4.0 14:38:58 10° SSW 14:44:18 80° WNW 14:49:34 10° NNE
SAR-Lupe-2 4.0 14:42:11 10° S 14:45:45 49° WSW 14:49:03 11° NW
TELKOM 3 3.6 14:43:58 10° W 14:46:34 63° NNW 14:50:18 10° ENE
Lacrosse 5 3.8 14:44:34 10° N 14:48:25 22° NE 14:52:18 10° ESE
Cosmos 1726 2.2 14:47:16 10° NNW 14:51:04 71° W 14:54:56 10° S
ARIANE 5 R/B 4.3 14:49:47 10° WNW 14:52:52 16° W 14:55:59 10° SW
Meteor 1-31 Rocket 4.2 14:54:32 10° NE 14:58:21 44° ESE 15:02:12 10° S
Cosmos 1821 Rocket 4.3 14:52:24 10° N 14:58:30 69° E 15:04:39 10° SSE
Cosmos 2098 Rocket 2.1 14:59:04 10° N 15:02:00 89° ENE 15:05:09 10° S
Cosmos 1908 4.4 14:59:08 10° NW 15:02:40 30° WSW 15:06:14 10° S
CZ-4B R/B 3.9 15:01:36 10° SSW 15:03:25 13° WSW 15:05:12 10° W
Cosmos 1633 Rocket 3.1 15:02:37 10° SSW 15:07:05 78° W 15:11:31 10° N
In-Cosmos 22 Rocket 4.1 15:04:40 10° SSW 15:10:06 76° W 15:15:35 10° N
SL-08 R/B 3.5 15:05:15 10° S 15:10:12 70° WSW 15:15:00 10° NNW
ADEOS II 2.8 15:09:31 10° NNW 15:14:20 35° W 15:19:13 10° SSW
Cosmos 1805 Rocket 4.3 15:10:29 10° SSW 15:14:32 36° W 15:18:32 10° NNW
ATLAS 3B R/B 3.0 15:09:27 10° NNW 15:16:09 73° NE 15:23:15 10° SE
USA 238 DEB 4.1 15:09:11 10° NNW 15:16:22 69° NE 15:23:31 10° SE
USA 238 4.1 15:09:17 10° NNW 15:16:27 68° NE 15:23:37 10° SE
